SR 1 & Rt 16, Milton DE USA current weather conditions

sailwx.info

Wind from 085 at 2 knots gusting 4

Air temperature 22.1° C
Dewpoint 21.4° C

Last reported at 2020-Aug-08 11:00 UTC.
Time now 2020-Aug-08 11:47 UTC

Location: N 38°48' W 075°16'.
View on Google Maps.

See reports from other nearby stations

  
Tides and Currents Weather Stations Pressure Air Temp Water Temp Dewpoint Dewpoint Depression Visibility Wind Speed Wind Dir Waves Ship Positions
date/time (UTC)wind fromknots sea level pressurealtimeterstation pressurevisibilityair tempwater tempwave heightnotes
2020-Aug-08 11:00 085 2 gusting 4 22.1
2020-Aug-08 10:55 105 2 gusting 4 22.1
2020-Aug-08 10:50 090 3 gusting 4 22.1
2020-Aug-08 10:45 095 2 gusting 4 22.1
2020-Aug-08 10:40 095 2 gusting 4 21.9
2020-Aug-08 10:35 100 3 gusting 4 21.9
2020-Aug-08 10:30 110 3 gusting 4 22.1
2020-Aug-08 10:25 090 2 gusting 3 21.9
2020-Aug-08 10:20 085 2 gusting 4 21.9
2020-Aug-08 10:15 075 2 gusting 5 21.9
2020-Aug-08 10:10 070 2 gusting 5 21.9
2020-Aug-08 10:05 075 3 gusting 7 21.8
2020-Aug-08 10:00 085 4 gusting 7 21.9
2020-Aug-08 09:55 085 3 gusting 6 21.8
2020-Aug-08 09:50 095 3 gusting 6 21.8
2020-Aug-08 09:45 100 4 gusting 8 21.8
2020-Aug-08 09:40 100 3 gusting 8 21.8
2020-Aug-08 09:35 080 4 gusting 7 21.9
2020-Aug-08 09:30 090 4 gusting 7 21.9
2020-Aug-08 09:25 080 4 gusting 7 21.9
2020-Aug-08 09:20 070 3 gusting 8 21.9
2020-Aug-08 09:15 075 5 gusting 8 21.9
2020-Aug-08 09:10 095 4 gusting 6 21.9
2020-Aug-08 09:05 105 4 gusting 9 21.9
2020-Aug-08 09:00 075 4 gusting 9 21.9
2020-Aug-08 08:55 085 4 gusting 6 21.9
2020-Aug-08 08:50 090 4 gusting 6 21.9
2020-Aug-08 08:45 040 3 gusting 6 21.8
2020-Aug-08 08:40 005 3 gusting 5 21.6
2020-Aug-08 08:35 025 2 gusting 4 21.6
2020-Aug-08 08:30 025 2 gusting 5 21.6
2020-Aug-08 08:25 065 3 gusting 5 21.4
2020-Aug-08 08:20 025 1 gusting 3 21.4
2020-Aug-08 08:15 005 1 gusting 4 21.4
2020-Aug-08 08:10 21.4
2020-Aug-08 08:05 025 2 gusting 4 21.2
2020-Aug-08 08:00 020 3 gusting 4 21.2
2020-Aug-08 07:55 050 1 gusting 5 21.2
2020-Aug-08 07:50 020 2 gusting 7 21.2
2020-Aug-08 07:45 030 6 gusting 7 21.1
2020-Aug-08 07:40 030 4 gusting 7 21.1
2020-Aug-08 07:35 030 5 gusting 7 21.1
2020-Aug-08 07:30 040 5 gusting 6 21.1
2020-Aug-08 07:25 040 3 gusting 6 21.1
2020-Aug-08 07:20 005 1 gusting 4 21.1
2020-Aug-08 07:15 015 2 gusting 3 21.1
2020-Aug-08 07:10 340 2 gusting 4 21.1
2020-Aug-08 07:05 350 2 gusting 5 21.1
2020-Aug-08 07:00 21.1
2020-Aug-08 06:55 345 3 gusting 4 21.1
2020-Aug-08 06:50 21.1
2020-Aug-08 06:45 325 2 gusting 3 21.1
2020-Aug-08 06:40 325 2 gusting 4 21.1
2020-Aug-08 06:35 190 3 gusting 4 21.1
2020-Aug-08 06:30 205 3 gusting 5 20.9
2020-Aug-08 06:25 235 2 gusting 5 20.9
2020-Aug-08 06:20 225 3 gusting 4 21.1
2020-Aug-08 06:15 240 2 gusting 3 20.9
2020-Aug-08 06:10 245 2 gusting 3 20.9
2020-Aug-08 06:05 250 1 gusting 4 20.9
2020-Aug-08 06:00 225 2 gusting 5 20.9
2020-Aug-08 05:55 285 3 gusting 6 20.9
2020-Aug-08 05:50 275 3 gusting 6 20.9
2020-Aug-08 05:45 260 4 gusting 6 20.9
2020-Aug-08 05:40 260 2 gusting 5 20.9
2020-Aug-08 05:35 265 3 gusting 7 20.9
2020-Aug-08 05:30 205 3 gusting 8 20.9
2020-Aug-08 05:25 195 3 gusting 9 20.9
2020-Aug-08 05:20 195 4 gusting 9 20.9
2020-Aug-08 05:15 210 5 gusting 9 20.8
2020-Aug-08 05:10 230 5 gusting 7 20.6
2020-Aug-08 05:05 240 4 gusting 6 20.6
2020-Aug-08 05:00 230 2 gusting 6 20.6
2020-Aug-08 04:55 205 4 gusting 7 20.6
2020-Aug-08 04:50 235 4 gusting 9 20.6
2020-Aug-08 04:45 215 4 gusting 9 20.6
2020-Aug-08 04:40 210 5 gusting 7 20.8
2020-Aug-08 04:35 220 2 gusting 4 20.8
2020-Aug-08 04:30 250 2 gusting 6 20.6
2020-Aug-08 04:25 250 2 gusting 7 20.6
2020-Aug-08 04:20 255 3 gusting 7 20.6
2020-Aug-08 04:15 290 4 gusting 5 20.6
2020-Aug-08 04:10 230 1 gusting 6 20.6
2020-Aug-08 04:05 240 3 gusting 6 20.6
2020-Aug-08 04:00 280 3 gusting 5 20.6
2020-Aug-08 03:55 310 2 gusting 4 20.6
2020-Aug-08 03:50 270 3 gusting 4 20.6
2020-Aug-08 03:45 325 2 gusting 5 20.6
2020-Aug-08 03:40 325 4 gusting 5 20.8
2020-Aug-08 03:35 300 2 gusting 5 20.6
2020-Aug-08 03:30 230 3 gusting 5 20.6
2020-Aug-08 03:25 200 3 gusting 5 20.6
2020-Aug-08 03:20 185 3 gusting 4 20.6
2020-Aug-08 03:15 165 3 gusting 4 20.4
2020-Aug-08 03:10 165 3 gusting 6 20.6
2020-Aug-08 03:05 140 3 gusting 6 20.6
2020-Aug-08 03:00 185 3 gusting 4 20.6
2020-Aug-08 02:55 175 2 gusting 4 20.6
2020-Aug-08 02:50 135 2 gusting 6 20.6
2020-Aug-08 02:45 105 2 gusting 7 20.6
2020-Aug-08 02:40 145 5 gusting 9 20.6
2020-Aug-08 02:35 160 6 gusting 10 20.6
2020-Aug-08 02:30 150 7 gusting 10 20.4
2020-Aug-08 02:25 115 6 gusting 10 20.6
2020-Aug-08 02:20 130 6 gusting 9 20.6
2020-Aug-08 02:15 135 6 gusting 10 20.6
2020-Aug-08 02:10 120 6 gusting 10 20.6
2020-Aug-08 02:05 090 2 gusting 4 20.6
2020-Aug-08 02:00 045 1 gusting 5 20.8
2020-Aug-08 01:55 140 1 gusting 6 20.6
2020-Aug-08 01:50 075 4 gusting 7 20.6
2020-Aug-08 01:45 080 4 gusting 7 20.6
2020-Aug-08 01:40 080 5 gusting 9 20.8
2020-Aug-08 01:35 055 5 gusting 12 20.8
2020-Aug-08 01:30 025 6 gusting 12 20.9
2020-Aug-08 01:25 020 8 gusting 14 20.9
2020-Aug-08 01:20 060 6 gusting 20 20.9
2020-Aug-08 01:15 025 12 gusting 20 21.6
2020-Aug-08 01:10 025 9 gusting 13 21.8
2020-Aug-08 01:05 125 6 gusting 7 21.9
2020-Aug-08 01:00 135 4 gusting 6 21.9
2020-Aug-08 00:55 100 3 gusting 6 21.9
2020-Aug-08 00:50 125 4 gusting 8 21.9
2020-Aug-08 00:45 115 5 gusting 8 21.9
2020-Aug-08 00:40 090 6 gusting 8 22.1
2020-Aug-08 00:35 105 4 gusting 5 22.1
2020-Aug-08 00:30 095 3 gusting 5 22.4
2020-Aug-08 00:25 080 1 gusting 6 22.9
2020-Aug-08 00:20 160 3 gusting 6 22.8
2020-Aug-08 00:15 165 3 gusting 4 22.9
2020-Aug-08 00:10 135 3 gusting 6 23.2
2020-Aug-08 00:05 140 4 gusting 7 23.4
2020-Aug-08 00:00 165 3 gusting 10 23.6
2020-Aug-07 23:55 160 7 gusting 10 23.9
2020-Aug-07 23:50 125 5 gusting 7 24.1
2020-Aug-07 23:45 135 2 gusting 6 23.9
2020-Aug-07 23:40 125 4 gusting 7 24.1
2020-Aug-07 23:35 125 4 gusting 7 24.1
2020-Aug-07 23:30 150 5 gusting 8 24.1
2020-Aug-07 23:25 135 6 gusting 8 24.2
2020-Aug-07 23:20 145 5 gusting 7 24.4
2020-Aug-07 23:15 140 4 gusting 6 24.6
2020-Aug-07 23:10 110 2 gusting 6 24.6
2020-Aug-07 23:05 125 4 gusting 7 24.8
2020-Aug-07 23:00 125 4 gusting 7 24.8
2020-Aug-07 22:55 125 6 gusting 8 24.9
2020-Aug-07 22:50 130 6 gusting 8 25.1
2020-Aug-07 22:40 125 6 gusting 8 25.4
2020-Aug-07 22:35 125 4 gusting 8 25.6
2020-Aug-07 22:30 125 5 gusting 9 25.6
2020-Aug-07 22:25 125 5 gusting 9 25.6
2020-Aug-07 22:20 140 6 gusting 9 25.6
2020-Aug-07 22:15 130 6 gusting 8 25.6
2020-Aug-07 22:10 110 6 gusting 10 25.9
2020-Aug-07 22:05 135 6 gusting 10 25.9
2020-Aug-07 22:00 125 8 gusting 10 25.8
2020-Aug-07 21:55 140 4 gusting 11 25.9
2020-Aug-07 21:50 115 7 gusting 11 25.9
2020-Aug-07 21:45 125 6 gusting 10 26.2
2020-Aug-07 21:40 125 7 gusting 10 26.4
2020-Aug-07 21:35 140 6 gusting 10 26.9
2020-Aug-07 21:30 130 7 gusting 11 26.8
2020-Aug-07 21:25 125 6 gusting 11 26.4
2020-Aug-07 21:20 100 6 gusting 11 26.2
2020-Aug-07 21:15 095 6 gusting 9 26.4
2020-Aug-07 21:10 115 7 gusting 9 26.2
2020-Aug-07 21:05 100 6 gusting 10 26.2
2020-Aug-07 21:00 130 7 gusting 10 26.4
2020-Aug-07 20:55 120 5 gusting 11 26.4
2020-Aug-07 20:50 095 6 gusting 12 26.1
2020-Aug-07 20:45 105 8 gusting 12 26.2
2020-Aug-07 20:40 110 8 gusting 13 26.6
2020-Aug-07 20:35 120 7 gusting 13 26.6
2020-Aug-07 20:30 090 9 gusting 13 26.9
2020-Aug-07 20:25 095 6 gusting 10 27.1
2020-Aug-07 20:20 110 7 gusting 11 27.1
2020-Aug-07 20:15 110 8 gusting 11 27.6
2020-Aug-07 20:10 105 7 gusting 10 28.4
2020-Aug-07 20:05 100 6 gusting 10 28.2
2020-Aug-07 20:00 100 7 gusting 10 28.4
2020-Aug-07 19:55 100 6 gusting 9 28.8
2020-Aug-07 19:50 085 5 gusting 9 28.6
2020-Aug-07 19:45 090 4 gusting 8 28.4
2020-Aug-07 19:40 085 4 gusting 7 28.1
2020-Aug-07 19:35 085 5 gusting 9 28.6
2020-Aug-07 19:30 110 6 gusting 9 28.9
2020-Aug-07 19:25 125 5 gusting 8 29.1
2020-Aug-07 19:20 110 5 gusting 9 28.9
2020-Aug-07 19:15 075 6 gusting 9 29.1
2020-Aug-07 19:10 100 5 gusting 8 29.4
2020-Aug-07 19:05 135 5 gusting 9 29.1
2020-Aug-07 19:00 075 6 gusting 9 29.9
2020-Aug-07 18:55 130 4 gusting 7 29.6
2020-Aug-07 18:50 105 5 gusting 7 29.8
2020-Aug-07 18:45 080 5 gusting 7 29.6
2020-Aug-07 18:40 105 4 gusting 6 29.6
2020-Aug-07 18:35 075 2 gusting 8 29.2
2020-Aug-07 18:25 065 2 gusting 8 29.4
2020-Aug-07 18:20 115 5 gusting 8 29.1
2020-Aug-07 18:15 095 3 gusting 6 29.1
2020-Aug-07 18:10 145 3 gusting 6 28.9
2020-Aug-07 18:05 145 5 gusting 6 27.9
2020-Aug-07 18:00 125 3 gusting 7 28.2
2020-Aug-07 17:55 105 5 gusting 7 28.9
2020-Aug-07 17:50 070 3 gusting 6 29.1
2020-Aug-07 17:45 090 2 gusting 6 29.4
2020-Aug-07 17:40 120 1 gusting 5 29.4
2020-Aug-07 17:35 095 2 gusting 6 28.6
2020-Aug-07 17:30 060 2 gusting 6 27.8
2020-Aug-07 17:25 060 4 gusting 8 27.8
2020-Aug-07 17:20 075 4 gusting 8 27.9
2020-Aug-07 17:15 090 5 gusting 7 28.4
2020-Aug-07 17:10 070 2 gusting 4 28.6
2020-Aug-07 17:05 100 1 gusting 4 28.1
2020-Aug-07 17:00 110 2 gusting 5 27.9
2020-Aug-07 16:55 110 1 gusting 7 28.1
2020-Aug-07 16:50 095 3 gusting 7 28.4
2020-Aug-07 16:45 055 5 gusting 6 28.9
2020-Aug-07 16:40 100 2 gusting 6 28.9
2020-Aug-07 16:35 030 3 gusting 6 28.8
2020-Aug-07 16:30 070 4 gusting 7 28.6
2020-Aug-07 16:25 035 3 gusting 7 28.9
2020-Aug-07 16:20 150 2 gusting 6 28.6
2020-Aug-07 16:15 150 4 gusting 6 28.6
2020-Aug-07 16:10 130 0 gusting 5 28.4
2020-Aug-07 16:05 095 3 gusting 5 28.6
2020-Aug-07 16:00 185 2 gusting 5 28.9
2020-Aug-07 15:55 090 2 gusting 5 27.9
2020-Aug-07 15:50 105 2 gusting 5 27.4
2020-Aug-07 15:45 070 3 gusting 5 27.4
2020-Aug-07 15:40 095 2 gusting 5 27.9
2020-Aug-07 15:35 100 3 gusting 5 27.9
2020-Aug-07 15:30 080 3 gusting 4 27.8
2020-Aug-07 15:25 115 0 gusting 2 27.4
2020-Aug-07 15:20 145 26.9
2020-Aug-07 15:15 120 1 gusting 3 27.1
2020-Aug-07 15:10 290 1 gusting 3 27.6
2020-Aug-07 15:05 200 27.4
2020-Aug-07 15:00 110 1 gusting 3 26.9
2020-Aug-07 14:55 050 0 gusting 4 26.9
2020-Aug-07 14:50 165 1 gusting 4 27.1
2020-Aug-07 14:45 130 0 gusting 3 26.8
2020-Aug-07 14:40 185 2 gusting 4 26.9
2020-Aug-07 14:35 165 2 gusting 4 27.1
2020-Aug-07 14:30 120 1 gusting 3 26.9
2020-Aug-07 14:25 095 1 gusting 4 26.4
2020-Aug-07 14:20 145 1 gusting 4 26.1
2020-Aug-07 14:15 145 0 gusting 3 25.8
2020-Aug-07 14:10 140 2 gusting 5 25.9
2020-Aug-07 14:05 170 2 gusting 5 25.9
2020-Aug-07 14:00 140 2 gusting 6 25.4
2020-Aug-07 13:55 130 4 gusting 6 25.1
2020-Aug-07 13:50 150 2 gusting 4 24.9
2020-Aug-07 13:45 130 2 gusting 4 24.9
2020-Aug-07 13:40 100 1 gusting 3 24.6
2020-Aug-07 13:35 110 2 gusting 4 24.4
2020-Aug-07 13:30 155 1 gusting 4 24.1
2020-Aug-07 13:25 125 0 gusting 3 23.9
2020-Aug-07 13:20 135 2 gusting 3 23.9
2020-Aug-07 13:15 070 1 gusting 3 23.6
2020-Aug-07 13:10 085 1 gusting 3 23.4
2020-Aug-07 13:05 110 2 gusting 3 23.4
2020-Aug-07 13:00 105 2 gusting 3 23.4
2020-Aug-07 12:55 075 0 gusting 1 23.4
2020-Aug-07 12:50 130 23.2
2020-Aug-07 12:45 130 1 gusting 2 23.1
2020-Aug-07 12:40 120 0 gusting 2 23.1
2020-Aug-07 12:35 235 0 gusting 2 22.9
2020-Aug-07 12:30 220 1 gusting 2 22.9
2020-Aug-07 12:25 195 0 gusting 1 22.8
2020-Aug-07 12:20 190 0 gusting 2 22.6
2020-Aug-07 12:15 165 0 gusting 3 22.4
2020-Aug-07 12:10 155 2 gusting 3 22.4
2020-Aug-07 12:05 190 1 gusting 2 22.4
2020-Aug-07 12:00 205 0 gusting 2 22.4
2020-Aug-07 11:55 230 1 gusting 3 22.4
2020-Aug-07 11:50 180 2 gusting 3 22.4
2020-Aug-07 11:45 190 2 gusting 2 22.4
2020-Aug-07 11:40 190 1 gusting 2 22.1
2020-Aug-07 11:35 205 1 gusting 2 22.1
2020-Aug-07 11:30 195 1 gusting 2 22.1
2020-Aug-07 11:25 215 1 gusting 2 22.1
2020-Aug-07 11:20 145 0 gusting 2 22.1
2020-Aug-07 11:15 105 1 gusting 2 22.1
2020-Aug-07 11:10 160 1 gusting 2 22.1
2020-Aug-07 11:05 175 1 gusting 2 22.1
2020-Aug-07 11:00 105 1 gusting 3 22.1
2020-Aug-07 10:55 130 1 gusting 3 21.9
2020-Aug-07 10:50 160 2 gusting 3 21.9
2020-Aug-07 10:45 125 2 gusting 3 21.9
2020-Aug-07 10:40 125 2 gusting 2 21.9
2020-Aug-07 10:35 210 0 gusting 3 21.9
2020-Aug-07 10:30 145 2 gusting 3 21.9
2020-Aug-07 10:25 120 2 gusting 3 21.9
2020-Aug-07 10:20 165 1 gusting 3 21.8
2020-Aug-07 10:15 130 2 gusting 5 21.8
2020-Aug-07 10:10 155 1 gusting 5 21.8
2020-Aug-07 10:05 135 4 gusting 6 21.8
2020-Aug-07 10:00 130 5 gusting 6 21.8
2020-Aug-07 09:55 130 3 gusting 5 21.9
2020-Aug-07 09:50 155 3 gusting 5 21.9
2020-Aug-07 09:45 135 4 gusting 5 21.9
2020-Aug-07 09:40 115 3 gusting 5 21.9
2020-Aug-07 09:35 115 2 gusting 3 21.9
2020-Aug-07 09:30 100 2 gusting 3 21.9
2020-Aug-07 09:25 125 1 gusting 3 22.1
2020-Aug-07 09:20 135 2 gusting 4 21.9
2020-Aug-07 09:15 120 2 gusting 4 21.9
2020-Aug-07 09:10 145 1 gusting 3 21.9
2020-Aug-07 09:05 115 2 gusting 3 21.9
2020-Aug-07 09:00 145 1 gusting 3 21.8
2020-Aug-07 08:55 170 2 gusting 3 21.9
2020-Aug-07 08:50 180 2 gusting 5 21.9
2020-Aug-07 08:45 145 3 gusting 5 21.9
2020-Aug-07 08:40 150 3 gusting 5 21.9
2020-Aug-07 08:35 150 3 gusting 4 21.9
2020-Aug-07 08:30 140 3 gusting 5 21.9
2020-Aug-07 08:25 140 3 gusting 5 21.9
2020-Aug-07 08:20 135 2 gusting 4 21.9
2020-Aug-07 08:15 130 2 gusting 4 21.9
2020-Aug-07 08:10 085 1 gusting 3 21.8
2020-Aug-07 08:05 070 1 gusting 2 21.8
2020-Aug-07 08:00 100 2 gusting 2 21.8
2020-Aug-07 07:55 125 1 gusting 2 21.8
2020-Aug-07 07:50 135 0 gusting 2 21.8
2020-Aug-07 07:45 140 0 gusting 1 21.8
2020-Aug-07 07:40 040 21.8
2020-Aug-07 07:35 085 0 gusting 2 21.8
2020-Aug-07 07:30 075 1 gusting 3 21.8
2020-Aug-07 07:25 125 2 gusting 3 21.8
2020-Aug-07 07:20 115 2 gusting 3 21.8
2020-Aug-07 07:15 130 1 gusting 3 21.8
2020-Aug-07 07:10 100 1 gusting 3 21.8
2020-Aug-07 07:05 110 1 gusting 4 21.8
2020-Aug-07 07:00 075 0 gusting 4 21.8
2020-Aug-07 06:55 070 2 gusting 5 21.8
2020-Aug-07 06:50 115 1 gusting 4 21.8
2020-Aug-07 06:45 085 2 gusting 4 21.8
2020-Aug-07 06:40 065 2 gusting 4 21.9
2020-Aug-07 06:35 065 2 gusting 3 21.9
2020-Aug-07 06:30 075 1 gusting 5 21.9
2020-Aug-07 06:25 130 3 gusting 5 21.9
2020-Aug-07 06:20 130 3 gusting 5 21.9
2020-Aug-07 06:15 140 4 gusting 7 21.9
2020-Aug-07 06:10 135 5 gusting 7 21.9
2020-Aug-07 06:05 130 4 gusting 7 21.9
2020-Aug-07 06:00 125 3 gusting 5 21.9
2020-Aug-07 05:55 130 3 gusting 5 21.9
2020-Aug-07 05:50 085 2 gusting 4 21.9
2020-Aug-07 05:45 070 0 gusting 3 21.9
2020-Aug-07 05:40 090 2 gusting 3 21.9
2020-Aug-07 05:35 105 1 gusting 3 21.8
2020-Aug-07 05:30 105 0 gusting 5 21.8
2020-Aug-07 05:25 090 3 gusting 5 21.6
2020-Aug-07 05:20 090 3 gusting 5 21.6
2020-Aug-07 05:15 105 4 gusting 5 21.8
2020-Aug-07 05:10 100 1 gusting 4 21.8
2020-Aug-07 05:05 125 2 gusting 5 21.6
2020-Aug-07 05:00 105 3 gusting 5 21.6
2020-Aug-07 04:55 125 3 gusting 5 21.6
2020-Aug-07 04:50 080 1 gusting 6 21.6
2020-Aug-07 04:45 105 4 gusting 7 21.6
2020-Aug-07 04:40 125 4 gusting 10 21.6
2020-Aug-07 04:35 110 6 gusting 10 21.6
2020-Aug-07 04:30 120 5 gusting 8 21.6
2020-Aug-07 04:25 105 6 gusting 9 21.8
2020-Aug-07 04:20 120 6 gusting 9 21.9
2020-Aug-07 04:15 125 7 gusting 9 22.1
2020-Aug-07 04:10 125 5 gusting 8 22.1
2020-Aug-07 04:05 125 5 gusting 8 22.1
2020-Aug-07 04:00 125 3 gusting 6 22.1
2020-Aug-07 03:55 115 3 gusting 7 22.2
2020-Aug-07 03:50 090 4 gusting 7 22.2
2020-Aug-07 03:45 080 4 gusting 7 22.4
2020-Aug-07 03:40 095 5 gusting 7 22.4
2020-Aug-07 03:35 095 4 gusting 6 22.4
2020-Aug-07 03:30 095 3 gusting 4 22.4
2020-Aug-07 03:25 100 3 gusting 4 22.4
2020-Aug-07 03:20 080 1 gusting 4 22.4
2020-Aug-07 03:15 080 2 gusting 4 22.4
2020-Aug-07 03:10 115 2 gusting 3 22.4
2020-Aug-07 03:05 105 2 gusting 3 22.4
2020-Aug-07 03:00 065 2 gusting 3 22.4
2020-Aug-07 02:55 070 2 gusting 3 22.4
2020-Aug-07 02:50 090 1 gusting 4 22.4
2020-Aug-07 02:45 085 2 gusting 4 22.4
2020-Aug-07 02:40 060 2 gusting 4 22.4
2020-Aug-07 02:35 100 1 gusting 4 22.4
2020-Aug-07 02:30 100 2 gusting 4 22.4
2020-Aug-07 02:25 095 1 gusting 4 22.4
2020-Aug-07 02:20 095 2 gusting 5 22.4
2020-Aug-07 02:15 125 2 gusting 5 22.4
2020-Aug-07 02:10 120 2 gusting 5 22.4
2020-Aug-07 02:05 105 2 gusting 5 22.4
2020-Aug-07 02:00 075 2 gusting 4 22.4
2020-Aug-07 01:55 090 2 gusting 3 22.2
2020-Aug-07 01:50 130 2 gusting 3 22.2
2020-Aug-07 01:45 140 1 gusting 4 22.2
2020-Aug-07 01:40 115 1 gusting 4 22.1
2020-Aug-07 01:35 125 2 gusting 4 22.1
2020-Aug-07 01:30 120 1 gusting 4 22.1
2020-Aug-07 01:25 125 2 gusting 4 22.1
2020-Aug-07 01:20 120 2 gusting 4 22.1
2020-Aug-07 01:15 095 2 gusting 4 22.1
2020-Aug-07 01:10 115 2 gusting 4 22.2
2020-Aug-07 01:05 090 1 gusting 3 22.2
2020-Aug-07 01:00 105 3 gusting 3 22.2
2020-Aug-07 00:55 130 2 gusting 3 22.2
2020-Aug-07 00:50 110 2 gusting 3 22.2
2020-Aug-07 00:45 140 0 gusting 3 22.2
2020-Aug-07 00:40 120 2 gusting 4 22.4
2020-Aug-07 00:35 125 3 gusting 4 22.4
2020-Aug-07 00:30 120 2 gusting 4 22.4
2020-Aug-07 00:25 100 1 gusting 4 22.4
2020-Aug-07 00:20 125 3 gusting 5 22.4
2020-Aug-07 00:15 115 2 gusting 5 22.4
2020-Aug-07 00:10 130 2 gusting 4 22.4
2020-Aug-07 00:05 120 3 gusting 5 22.4
2020-Aug-07 00:00 125 3 gusting 5 22.4
2020-Aug-06 23:55 110 3 gusting 6 22.4
2020-Aug-06 23:50 100 3 gusting 6 22.4
2020-Aug-06 23:45 125 3 gusting 6 22.4
2020-Aug-06 23:40 100 3 gusting 4 22.4
2020-Aug-06 23:35 090 1 gusting 5 22.4
2020-Aug-06 23:30 080 2 gusting 6 22.4
2020-Aug-06 23:25 110 4 gusting 6 22.4
2020-Aug-06 23:20 115 3 gusting 6 22.4
2020-Aug-06 23:15 115 3 gusting 5 22.4
2020-Aug-06 23:10 105 3 gusting 5 22.4
2020-Aug-06 23:05 095 3 gusting 6 22.4
2020-Aug-06 23:00 105 3 gusting 6 22.4
2020-Aug-06 22:55 115 3 gusting 7 22.4
2020-Aug-06 22:50 125 5 gusting 7 22.4
2020-Aug-06 22:45 110 4 gusting 7 22.6
2020-Aug-06 22:40 115 3 gusting 7 22.6
2020-Aug-06 22:35 105 4 gusting 7 22.6
2020-Aug-06 22:30 120 3 gusting 6 22.6
2020-Aug-06 22:25 105 3 gusting 6 22.8
2020-Aug-06 22:20 120 4 gusting 6 22.9
2020-Aug-06 22:15 100 3 gusting 6 22.9
2020-Aug-06 22:10 110 2 gusting 7 22.9
2020-Aug-06 22:05 105 5 gusting 7 22.9
2020-Aug-06 22:00 105 5 gusting 8 22.9
2020-Aug-06 21:55 120 3 gusting 8 22.9
2020-Aug-06 21:50 115 5 gusting 8 22.9
2020-Aug-06 21:45 120 4 gusting 6 22.9
2020-Aug-06 21:40 125 5 gusting 7 22.9
2020-Aug-06 21:35 095 5 gusting 7 22.9
2020-Aug-06 21:30 120 4 gusting 8 22.9
2020-Aug-06 21:25 120 4 gusting 8 22.9
2020-Aug-06 21:20 100 6 gusting 9 22.8
2020-Aug-06 21:15 105 6 gusting 8 22.8
2020-Aug-06 21:10 110 5 gusting 7 22.9
2020-Aug-06 21:05 095 4 gusting 8 22.9
2020-Aug-06 21:00 100 6 gusting 8 22.8
2020-Aug-06 20:55 090 5 gusting 9 22.9
2020-Aug-06 20:50 090 6 gusting 9 22.9
2020-Aug-06 20:45 090 5 gusting 8 22.9
2020-Aug-06 20:40 110 6 gusting 10 22.9
2020-Aug-06 20:35 110 5 gusting 10 23.1
2020-Aug-06 20:30 090 5 gusting 9 23.4
2020-Aug-06 20:25 095 6 gusting 8 23.9
2020-Aug-06 20:20 160 5 gusting 9 23.9
2020-Aug-06 20:15 145 7 gusting 9 23.9
2020-Aug-06 20:10 140 6 gusting 9 23.9
2020-Aug-06 20:05 150 7 gusting 10 24.1
2020-Aug-06 20:00 150 8 gusting 10 24.1
2020-Aug-06 19:55 160 5 gusting 7 24.1
2020-Aug-06 19:50 155 5 gusting 8 24.1
2020-Aug-06 19:45 165 6 gusting 8 24.2
2020-Aug-06 19:40 170 7 gusting 8 24.4
2020-Aug-06 19:35 150 4 gusting 7 24.6
2020-Aug-06 19:30 135 6 gusting 8 24.9
2020-Aug-06 19:25 150 5 gusting 8 25.1
2020-Aug-06 19:20 175 5 gusting 8 25.6
2020-Aug-06 19:15 145 5 gusting 10 25.4
2020-Aug-06 19:10 125 7 gusting 10 25.6
2020-Aug-06 19:05 140 7 gusting 9 25.6
2020-Aug-06 19:00 135 6 gusting 10 25.8
2020-Aug-06 18:55 120 6 gusting 10 25.8
2020-Aug-06 18:50 130 6 gusting 10 26.1
2020-Aug-06 18:45 120 6 gusting 12 25.9
2020-Aug-06 18:40 135 5 gusting 12 26.6
2020-Aug-06 18:35 120 6 gusting 10 26.4
2020-Aug-06 18:30 110 5 gusting 12 26.2
2020-Aug-06 18:25 130 8 gusting 12 26.1
2020-Aug-06 18:20 130 7 gusting 11 25.9
2020-Aug-06 18:15 145 8 gusting 11 26.1
2020-Aug-06 18:10 140 8 gusting 12 25.9
2020-Aug-06 18:05 120 7 gusting 13 25.6
2020-Aug-06 18:00 130 7 gusting 13 26.1
2020-Aug-06 17:55 130 9 gusting 13 25.8
2020-Aug-06 17:50 105 4 gusting 13 26.1
2020-Aug-06 17:45 110 7 gusting 12 25.4
2020-Aug-06 17:40 100 7 gusting 13 25.6
2020-Aug-06 17:35 150 7 gusting 13 25.1
2020-Aug-06 17:30 140 10 gusting 13 24.9
2020-Aug-06 17:25 140 7 gusting 11 24.4
2020-Aug-06 17:20 105 7 gusting 11 24.1
2020-Aug-06 17:15 100 6 gusting 13 24.1
2020-Aug-06 17:10 105 8 gusting 13 23.9
2020-Aug-06 17:05 095 7 gusting 13 24.4
2020-Aug-06 17:00 095 6 gusting 11 24.2
2020-Aug-06 16:55 095 8 gusting 11 23.6
2020-Aug-06 16:50 075 5 gusting 12 23.9
2020-Aug-06 16:45 105 8 gusting 12 23.6
2020-Aug-06 16:40 075 6 gusting 10 23.4
2020-Aug-06 16:35 075 7 gusting 10 23.6
2020-Aug-06 16:30 085 7 gusting 11 23.8
2020-Aug-06 16:25 085 6 gusting 11 23.9
2020-Aug-06 16:20 070 8 gusting 11 23.9
2020-Aug-06 16:15 095 6 gusting 11 23.8
2020-Aug-06 16:10 095 7 gusting 11 23.6
2020-Aug-06 16:05 095 8 gusting 12 23.6
2020-Aug-06 16:00 100 8 gusting 12 23.6
2020-Aug-06 15:55 105 8 gusting 12 23.6
2020-Aug-06 15:50 100 8 gusting 12 23.8
2020-Aug-06 15:45 075 6 gusting 13 23.4
2020-Aug-06 15:40 105 9 gusting 13 23.4
2020-Aug-06 15:35 120 6 gusting 13 23.8
2020-Aug-06 15:30 095 8 gusting 13 23.9
2020-Aug-06 15:25 110 6 gusting 13 23.9
2020-Aug-06 15:20 105 7 gusting 13 24.1
2020-Aug-06 15:15 095 6 gusting 10 24.4
2020-Aug-06 15:10 095 7 gusting 12 24.6
2020-Aug-06 15:05 115 6 gusting 12 24.6
2020-Aug-06 15:00 085 6 gusting 11 24.8
2020-Aug-06 14:55 100 6 gusting 11 24.6
2020-Aug-06 14:50 100 7 gusting 11 24.4
2020-Aug-06 14:45 120 5 gusting 9 24.6
2020-Aug-06 14:40 115 3 gusting 5 24.1
2020-Aug-06 14:35 115 2 gusting 4 23.9
2020-Aug-06 14:30 125 2 gusting 5 23.2
2020-Aug-06 14:25 135 2 gusting 6 23.1
2020-Aug-06 14:20 145 3 gusting 6 23.1
2020-Aug-06 14:15 155 3 gusting 6 22.9
2020-Aug-06 14:10 135 5 gusting 6 22.8
2020-Aug-06 14:05 135 3 gusting 5 22.6
2020-Aug-06 14:00 160 3 gusting 5 22.8
2020-Aug-06 13:55 145 4 gusting 5 22.2
2020-Aug-06 13:50 130 2 gusting 5 21.8
2020-Aug-06 13:45 135 2 gusting 5 21.4
2020-Aug-06 13:40 145 4 gusting 5 21.1
2020-Aug-06 13:35 155 3 gusting 4 21.1
2020-Aug-06 13:30 160 3 gusting 3 20.9
2020-Aug-06 13:25 165 3 gusting 3 20.8
2020-Aug-06 13:20 165 1 gusting 1 20.6
2020-Aug-06 13:15 150 0 gusting 2 20.8
2020-Aug-06 13:10 185 1 gusting 2 20.6
2020-Aug-06 13:05 225 0 gusting 2 20.6
2020-Aug-06 13:00 215 20.6
2020-Aug-06 12:55 215 2 gusting 2 20.6
2020-Aug-06 12:50 210 1 gusting 2 20.6
2020-Aug-06 12:45 340 0 gusting 5 20.6
2020-Aug-06 12:40 20.6
2020-Aug-06 12:35 015 4 gusting 8 20.6
2020-Aug-06 12:30 030 5 gusting 8 20.8
2020-Aug-06 12:25 025 4 gusting 6 20.9
2020-Aug-06 12:20 045 2 gusting 5 20.9
2020-Aug-06 12:15 070 3 gusting 6 20.9
2020-Aug-06 12:10 075 5 gusting 6 20.9
2020-Aug-06 12:05 120 2 gusting 3 20.9
2020-Aug-06 12:00 015 1 gusting 17 20.9
2020-Aug-06 11:55 345 3 gusting 20 21.2
2020-Aug-06 11:50 345 12 gusting 20 22.1
2020-Aug-06 11:45 330 12 gusting 17 22.1
2020-Aug-06 11:40 330 10 gusting 16 23.6
2020-Aug-06 11:35 255 0 gusting 1 23.9
2020-Aug-06 11:30 235 0 gusting 1 23.9
2020-Aug-06 11:25 120 23.8
2020-Aug-06 11:20 045 0 gusting 3 23.6
2020-Aug-06 11:15 335 0 gusting 2 23.6
2020-Aug-06 11:10 035 0 gusting 2 23.4
2020-Aug-06 11:05 340 1 gusting 2 23.4
2020-Aug-06 11:00 290 0 gusting 3 23.2